QPF
0.04 0.04 0.06 0.07 0.06 0.06 0.05 0.05 0.05 0.05 0.04 0.03 0.03 0.03 0.04 0.04 0.04 0.04 0.04 0.03 0.03 0.04 0.03 0.03 0.03 0.03 0.03 0.02 0.01 0.01 0.02 0.03 0.04 0.05 0.04 0.05 0.04 0.06 0.08 0.07 0.06 0.05 0.04
0.05 0.06 0.06 0.06 0.06 0.07 0.06 0.06 0.05 0.05 0.05 0.04 0.03 0.03 0.03 0.03 0.04 0.04 0.04 0.03 0.04 0.05 0.05 0.05 0.04 0.04 0.04 0.03 0.02 0.02 0.02 0.03 0.03 0.04 0.03 0.03 0.03 0.04 0.06 0.07 0.07 0.06 0.05
0.06 0.09 0.08 0.06 0.05 0.05 0.06 0.06 0.06 0.06 0.05 0.05 0.04 0.03 0.03 0.03 0.04 0.04 0.04 0.04 0.05 0.05 0.06 0.05 0.04 0.04 0.04 0.03 0.03 0.02 0.02 0.02 0.03 0.04 0.03 0.02 0.02 0.02 0.03 0.04 0.05 0.05 0.04
0.04 0.06 0.06 0.05 0.04 0.04 0.05 0.06 0.06 0.06 0.06 0.06 0.06 0.05 0.03 0.03 0.03 0.05 0.05 0.04 0.04 0.04 0.04 0.04 0.04 0.04 0.04 0.04 0.03 0.03 0.04 0.04 0.04 0.04 0.04 0.03 0.02 0.02 0.02 0.03 0.03 0.03 0.03
0.02 0.02 0.03 0.05 0.05 0.05 0.06 0.06 0.05 0.04 0.05 0.06 0.06 0.06 0.06 0.04 0.03 0.04 0.04 0.04 0.04 0.05 0.05 0.04 0.04 0.05 0.05 0.04 0.02 0.03 0.03 0.03 0.03 0.04 0.04 0.04 0.04 0.03 0.03 0.03 0.03 0.03 0.03
0.02 0.01 0.01 0.03 0.05 0.07 0.11 0.11 0.07 0.04 0.04 0.04 0.05 0.05 0.04 0.03 0.03 0.02 0.02 0.03 0.04 0.04 0.04 0.05 0.04 0.04 0.04 0.05 0.04 0.03 0.02 0.03 0.03 0.04 0.03 0.04 0.04 0.04 0.04 0.04 0.03 0.04 0.05
0.02 0.01 0.02 0.02 0.02 0.03 0.05 0.06 0.06 0.05 0.04 0.04 0.04 0.03 0.03 0.03 0.02 0.02 0.02 0.02 0.03 0.04 0.03 0.05 0.04 0.03 0.03 0.04 0.03 0.02 0.02 0.02 0.02 0.03 0.03 0.03 0.04 0.04 0.05 0.04 0.04 0.04 0.04
0.02 0.02 0.02 0.02 0.02 0.02 0.03 0.03 0.03 0.04 0.04 0.04 0.04 0.04 0.04 0.03 0.03 0.02 0.02 0.02 0.02 0.02 0.03 0.04 0.04 0.03 0.02 0.02 0.02 0.02 0.02 0.02 0.02 0.02 0.02 0.02 0.02 0.03 0.03 0.03 0.03 0.03 0.04
0.01 0.01 0.01 0.01 0.02 0.02 0.02 0.02 0.03 0.03 0.03 0.03 0.04 0.04 0.04 0.04 0.05 0.03 0.01 0.01 0.02 0.02 0.02 0.03 0.02 0.02 0.01 0.01 0.01 0.02 0.02 0.02 0.01 0.01 0.01 0.01 0.02 0.02 0.02 0.03 0.03 0.05 0.06
0.01 0.01 0.01 0.01 0.01 0.02 0.03 0.02 0.02 0.02 0.02 0.02 0.03 0.02 0.02 0.02 0.04 0.04 0.02 0.02 0.02 0.02 0.03 0.03 0.03 0.02 0.01 0.01 0.01 0.01 0.01 0.02 0.02 0.02 0.02 0.02 0.02 0.02 0.03 0.03 0.04 0.05 0.07
0.01 0.01 0.01 0.01 0.01 0.02 0.02 0.02 0.02 0.02 0.02 0.02 0.02 0.03 0.02 0.03 0.04 0.04 0.03 0.02 0.03 0.02 0.02 0.02 0.02 0.02 0.02 0.02 0.02 0.01 0.01 0.02 0.02 0.02 0.02 0.02 0.02 0.03 0.04 0.04 0.04 0.04 0.06
0.02 0.02 0.02 0.02 0.02 0.02 0.03 0.03 0.02 0.02 0.02 0.02 0.03 0.03 0.04 0.04 0.05 0.04 0.03 0.02 0.01 0.02 0.02 0.01 0.01 0.02 0.02 0.02 0.02 0.01 0.02 0.01 0.01 0.01 0.01 0.02 0.02 0.02 0.03 0.04 0.05 0.05 0.06
0.02 0.02 0.03 0.03 0.03 0.02 0.02 0.02 0.02 0.03 0.03 0.03 0.03 0.03 0.04 0.04 0.04 0.03 0.03 0.02 0.01 0.02 0.02 0.03 0.02 0.01 0.01 0.01 0.02 0.01 0.02 0.02 0.02 0.03 0.03 0.03 0.03 0.02 0.03 0.03 0.04 0.04 0.05
0.03 0.02 0.03 0.03 0.03 0.02 0.02 0.02 0.02 0.03 0.03 0.03 0.03 0.03 0.03 0.04 0.03 0.02 0.03 0.02 0.01 0.01 0.02 0.03 0.03 0.02 0.01 0.01 0.02 0.02 0.02 0.02 0.03 0.04 0.04 0.04 0.05 0.05 0.04 0.04 0.04 0.04 0.05
0.04 0.03 0.03 0.03 0.03 0.03 0.02 0.02 0.02 0.02 0.02 0.02 0.03 0.03 0.03 0.03 0.02 0.02 0.02 0.02 0.02 0.01 0.01 0.02 0.02 0.02 0.01 0.01 0.02 0.02 0.02 0.03 0.04 0.04 0.05 0.05 0.05 0.06 0.07 0.05 0.05 0.05 0.06
0.03 0.03 0.03 0.03 0.03 0.03 0.03 0.02 0.02 0.02 0.02 0.02 0.02 0.02 0.02 0.01 0.01 0.01 0.01 0.02 0.01 0.01 0.01 0.02 0.03 0.02 0.02 0.02 0.02 0.02 0.03 0.04 0.04 0.04 0.04 0.04 0.04 0.04 0.05 0.05 0.04 0.04 0.04
0.03 0.03 0.03 0.02 0.02 0.02 0.02 0.03 0.03 0.03 0.02 0.02 0.02 0.01 0.01 0.01 0.01 0.01 0.01 0.02 0.01 0.01 0.01 0.02 0.04 0.04 0.03 0.03 0.02 0.02 0.03 0.03 0.03 0.03 0.03 0.03 0.03 0.03 0.04 0.05 0.04 0.04 0.03
0.03 0.03 0.03 0.02 0.02 0.02 0.02 0.02 0.02 0.02 0.01 0.02 0.02 0.01 0.01 0.01 0.02 0.01 0.02 0.02 0.02 0.03 0.02 0.02 0.04 0.05 0.03 0.03 0.03 0.03 0.03 0.02 0.02 0.02 0.03 0.03 0.02 0.02 0.02 0.03 0.04 0.06 0.05
0.03 0.02 0.02 0.02 0.01 0.01 0.02 0.02 0.01 0.01 0.02 0.02 0.02 0.02 0.02 0.02 0.02 0.02 0.02 0.02 0.03 0.04 0.02 0.02 0.03 0.03 0.03 0.03 0.03 0.03 0.03 0.02 0.02 0.02 0.03 0.03 0.02 0.02 0.02 0.03 0.03 0.04 0.05
0.02 0.02 0.02 0.02 0.03 0.02 0.02 0.02 0.01 0.01 0.02 0.02 0.02 0.02 0.03 0.03 0.02 0.02 0.02 0.02 0.03 0.03 0.02 0.02 0.02 0.02 0.03 0.03 0.02 0.02 0.02 0.01 0.02 0.02 0.03 0.03 0.02 0.02 0.02 0.03 0.03 0.03 0.04
0.02 0.03 0.03 0.02 0.02 0.03 0.02 0.02 0.02 0.02 0.02 0.02 0.02 0.02 0.02 0.02 0.02 0.02 0.02 0.02 0.02 0.03 0.03 0.02 0.02 0.02 0.02 0.02 0.02 0.02 0.02 0.02 0.02 0.02 0.03 0.03 0.02 0.02 0.03 0.05 0.05 0.05 0.05
0.02 0.02 0.02 0.01 0.02 0.03 0.03 0.03 0.03 0.02 0.02 0.02 0.02 0.02 0.02 0.02 0.02 0.02 0.02 0.02 0.02 0.02 0.03 0.03 0.03 0.03 0.02 0.02 0.02 0.02 0.02 0.02 0.02 0.03 0.03 0.04 0.03 0.03 0.04 0.05 0.05 0.05 0.05
0.02 0.02 0.01 0.01 0.02 0.03 0.03 0.02 0.01 0.01 0.01 0.02 0.02 0.03 0.03 0.02 0.02 0.02 0.03 0.03 0.04 0.03 0.03 0.03 0.04 0.03 0.02 0.02 0.02 0.03 0.03 0.02 0.02 0.03 0.04 0.04 0.03 0.03 0.03 0.04 0.05 0.05 0.05
0.01 0.01 0.01 0.02 0.02 0.02 0.02 0.02 0.02 0.02 0.02 0.02 0.02 0.03 0.03 0.04 0.04 0.03 0.03 0.02 0.02 0.03 0.04 0.04 0.05 0.07 0.08 0.07 0.06 0.04 0.04 0.05 0.05 0.05 0.05 0.05 0.04 0.04 0.04 0.04 0.05 0.05 0.05
0.01 0.01 0.01 0.02 0.02 0.02 0.02 0.02 0.02 0.02 0.02 0.03 0.03 0.02 0.03 0.04 0.05 0.04 0.03 0.02 0.02 0.02 0.02 0.03 0.04 0.05 0.05 0.06 0.07 0.07 0.06 0.05 0.05 0.05 0.06 0.06 0.05 0.04 0.04 0.04 0.04 0.04 0.06
0.01 0.01 0.01 0.01 0.02 0.03 0.02 0.02 0.02 0.03 0.03 0.03 0.03 0.04 0.04 0.05 0.05 0.05 0.04 0.04 0.03 0.03 0.03 0.03 0.03 0.03 0.02 0.02 0.03 0.05 0.06 0.05 0.04 0.04 0.04 0.03 0.04 0.05 0.04 0.04 0.03 0.04 0.05
MSLP
1008.97 1009.42 1009.84 1010.20 1010.45 1010.60 1010.64 1010.61 1010.56 1010.51 1010.50 1010.54 1010.62 1010.72 1010.82 1010.89 1010.90 1010.88 1010.83 1010.81 1010.85 1011.00 1011.30 1011.75 1012.33 1013.01 1013.73 1014.41 1015.00 1015.43 1015.68 1015.73 1015.61 1015.32 1014.92 1014.45 1013.97 1013.51 1013.10 1012.77 1012.52 1012.35 1012.28
1008.78 1009.21 1009.59 1009.90 1010.13 1010.25 1010.30 1010.31 1010.29 1010.30 1010.35 1010.45 1010.58 1010.73 1010.86 1010.94 1010.98 1010.97 1010.95 1010.93 1010.99 1011.15 1011.44 1011.88 1012.43 1013.08 1013.76 1014.40 1014.96 1015.38 1015.64 1015.72 1015.64 1015.41 1015.07 1014.65 1014.21 1013.76 1013.34 1012.96 1012.63 1012.36 1012.15
1008.70 1009.10 1009.45 1009.71 1009.89 1010.00 1010.05 1010.07 1010.11 1010.18 1010.29 1010.46 1010.66 1010.86 1011.04 1011.17 1011.24 1011.26 1011.26 1011.27 1011.34 1011.49 1011.76 1012.15 1012.65 1013.22 1013.81 1014.37 1014.86 1015.24 1015.47 1015.57 1015.53 1015.37 1015.12 1014.80 1014.44 1014.06 1013.67 1013.28 1012.91 1012.57 1012.26
1008.66 1009.05 1009.36 1009.58 1009.72 1009.80 1009.85 1009.89 1009.97 1010.10 1010.28 1010.52 1010.79 1011.05 1011.29 1011.46 1011.58 1011.65 1011.68 1011.71 1011.79 1011.93 1012.17 1012.50 1012.92 1013.38 1013.86 1014.31 1014.70 1015.00 1015.20 1015.29 1015.29 1015.21 1015.06 1014.86 1014.62 1014.35 1014.04 1013.70 1013.33 1012.95 1012.56
1008.55 1008.94 1009.23 1009.43 1009.54 1009.60 1009.65 1009.71 1009.83 1010.01 1010.26 1010.56 1010.89 1011.21 1011.50 1011.73 1011.89 1012.00 1012.06 1012.13 1012.21 1012.35 1012.56 1012.84 1013.16 1013.52 1013.88 1014.21 1014.49 1014.70 1014.84 1014.93 1014.96 1014.95 1014.91 1014.84 1014.74 1014.59 1014.39 1014.12 1013.79 1013.41 1012.99
1008.27 1008.68 1008.98 1009.17 1009.27 1009.33 1009.39 1009.48 1009.64 1009.87 1010.17 1010.52 1010.90 1011.26 1011.59 1011.85 1012.05 1012.20 1012.30 1012.39 1012.50 1012.65 1012.84 1013.07 1013.33 1013.60 1013.85 1014.07 1014.24 1014.37 1014.46 1014.52 1014.57 1014.62 1014.68 1014.72 1014.75 1014.73 1014.65 1014.48 1014.22 1013.87 1013.45
1007.74 1008.20 1008.53 1008.74 1008.87 1008.96 1009.04 1009.17 1009.36 1009.63 1009.96 1010.35 1010.75 1011.14 1011.49 1011.78 1012.00 1012.18 1012.32 1012.45 1012.60 1012.77 1012.96 1013.18 1013.41 1013.61 1013.79 1013.92 1014.01 1014.06 1014.09 1014.12 1014.18 1014.26 1014.38 1014.52 1014.65 1014.75 1014.78 1014.71 1014.53 1014.25 1013.86
1006.97 1007.49 1007.88 1008.15 1008.33 1008.46 1008.60 1008.77 1009.00 1009.30 1009.66 1010.06 1010.47 1010.86 1011.20 1011.50 1011.74 1011.94 1012.11 1012.29 1012.48 1012.70 1012.93 1013.17 1013.39 1013.58 1013.72 1013.80 1013.82 1013.81 1013.79 1013.78 1013.82 1013.91 1014.06 1014.25 1014.45 1014.63 1014.74 1014.76 1014.67 1014.46 1014.13
1006.05 1006.64 1007.10 1007.45 1007.71 1007.92 1008.12 1008.35 1008.63 1008.95 1009.32 1009.71 1010.10 1010.47 1010.79 1011.07 1011.31 1011.53 1011.74 1011.97 1012.22 1012.49 1012.78 1013.07 1013.33 1013.53 1013.67 1013.72 1013.71 1013.66 1013.59 1013.54 1013.54 1013.60 1013.73 1013.93 1014.15 1014.36 1014.53 1014.62 1014.61 1014.48 1014.24
1005.14 1005.79 1006.33 1006.77 1007.12 1007.41 1007.69 1007.98 1008.30 1008.64 1009.01 1009.38 1009.73 1010.06 1010.35 1010.60 1010.83 1011.05 1011.29 1011.56 1011.87 1012.22 1012.58 1012.93 1013.24 1013.49 1013.65 1013.71 1013.68 1013.60 1013.49 1013.39 1013.33 1013.34 1013.42 1013.58 1013.78 1013.99 1014.19 1014.32 1014.37 1014.31 1014.16
1004.40 1005.10 1005.71 1006.22 1006.66 1007.04 1007.39 1007.74 1008.08 1008.44 1008.79 1009.12 1009.43 1009.70 1009.94 1010.15 1010.36 1010.58 1010.84 1011.15 1011.51 1011.92 1012.35 1012.77 1013.14 1013.44 1013.63 1013.71 1013.69 1013.59 1013.44 1013.29 1013.17 1013.11 1013.13 1013.22 1013.37 1013.55 1013.73 1013.88 1013.98 1013.99 1013.93
1003.96 1004.68 1005.33 1005.91 1006.41 1006.85 1007.26 1007.64 1008.01 1008.35 1008.67 1008.96 1009.22 1009.43 1009.61 1009.78 1009.96 1010.17 1010.43 1010.77 1011.17 1011.62 1012.11 1012.58 1013.00 1013.34 1013.57 1013.68 1013.66 1013.56 1013.39 1013.20 1013.02 1012.89 1012.84 1012.85 1012.94 1013.07 1013.23 1013.38 1013.50 1013.58 1013.60
1003.89 1004.60 1005.25 1005.84 1006.38 1006.85 1007.29 1007.68 1008.04 1008.36 1008.64 1008.88 1009.07 1009.22 1009.34 1009.47 1009.61 1009.80 1010.06 1010.40 1010.81 1011.29 1011.80 1012.30 1012.76 1013.12 1013.38 1013.51 1013.51 1013.41 1013.24 1013.02 1012.82 1012.64 1012.53 1012.49 1012.51 1012.60 1012.72 1012.86 1013.01 1013.13 1013.22
1004.16 1004.81 1005.42 1005.99 1006.51 1006.97 1007.39 1007.76 1008.09 1008.37 1008.60 1008.77 1008.90 1009.00 1009.07 1009.15 1009.26 1009.43 1009.67 1009.99 1010.40 1010.87 1011.37 1011.87 1012.33 1012.70 1012.97 1013.12 1013.14 1013.06 1012.91 1012.71 1012.50 1012.32 1012.18 1012.11 1012.11 1012.16 1012.26 1012.39 1012.54 1012.69 1012.84
1004.66 1005.21 1005.75 1006.25 1006.70 1007.11 1007.48 1007.80 1008.06 1008.28 1008.45 1008.57 1008.64 1008.68 1008.71 1008.75 1008.83 1008.97 1009.18 1009.48 1009.86 1010.29 1010.76 1011.23 1011.66 1012.02 1012.29 1012.45 1012.50 1012.46 1012.35 1012.20 1012.04 1011.89 1011.79 1011.73 1011.72 1011.77 1011.87 1012.00 1012.15 1012.32 1012.49
1005.23 1005.66 1006.09 1006.48 1006.84 1007.16 1007.44 1007.67 1007.86 1008.00 1008.10 1008.16 1008.18 1008.18 1008.17 1008.19 1008.25 1008.36 1008.54 1008.80 1009.13 1009.51 1009.92 1010.33 1010.71 1011.04 1011.29 1011.47 1011.56 1011.58 1011.55 1011.48 1011.41 1011.35 1011.32 1011.32 1011.36 1011.44 1011.55 1011.69 1011.85 1012.02 1012.20
1005.71 1006.02 1006.31 1006.59 1006.83 1007.03 1007.21 1007.34 1007.44 1007.50 1007.53 1007.52 1007.50 1007.47 1007.44 1007.44 1007.48 1007.57 1007.72 1007.93 1008.20 1008.52 1008.85 1009.19 1009.51 1009.80 1010.04 1010.22 1010.36 1010.45 1010.52 1010.57 1010.62 1010.68 1010.77 1010.87 1010.99 1011.13 1011.28 1011.45 1011.61 1011.79 1011.97
1006.01 1006.20 1006.37 1006.52 1006.63 1006.72 1006.78 1006.81 1006.82 1006.79 1006.75 1006.69 1006.63 1006.57 1006.53 1006.51 1006.54 1006.61 1006.73 1006.90 1007.11 1007.36 1007.62 1007.88 1008.13 1008.37 1008.59 1008.78 1008.97 1009.14 1009.31 1009.50 1009.69 1009.90 1010.13 1010.36 1010.59 1010.82 1011.03 1011.23 1011.41 1011.59 1011.75
1006.09 1006.18 1006.25 1006.28 1006.29 1006.27 1006.22 1006.16 1006.07 1005.96 1005.85 1005.74 1005.64 1005.56 1005.50 1005.48 1005.49 1005.54 1005.64 1005.77 1005.93 1006.10 1006.29 1006.47 1006.66 1006.85 1007.05 1007.25 1007.47 1007.72 1008.01 1008.32 1008.66 1009.03 1009.40 1009.78 1010.13 1010.45 1010.74 1010.99 1011.20 1011.37 1011.53
1005.98 1006.00 1005.99 1005.94 1005.86 1005.75 1005.62 1005.46 1005.29 1005.11 1004.93 1004.77 1004.63 1004.52 1004.44 1004.41 1004.41 1004.45 1004.51 1004.61 1004.71 1004.82 1004.94 1005.06 1005.19 1005.34 1005.51 1005.71 1005.97 1006.28 1006.66 1007.09 1007.56 1008.07 1008.59 1009.09 1009.57 1010.00 1010.37 1010.67 1010.92 1011.11 1011.26
1005.76 1005.74 1005.68 1005.58 1005.43 1005.26 1005.05 1004.82 1004.57 1004.32 1004.08 1003.86 1003.68 1003.53 1003.43 1003.37 1003.36 1003.38 1003.42 1003.48 1003.54 1003.61 1003.67 1003.73 1003.81 1003.91 1004.05 1004.26 1004.53 1004.89 1005.33 1005.85 1006.43 1007.05 1007.69 1008.32 1008.90 1009.43 1009.87 1010.24 1010.53 1010.75 1010.92
1005.50 1005.46 1005.37 1005.25 1005.07 1004.84 1004.58 1004.29 1003.97 1003.66 1003.35 1003.08 1002.84 1002.65 1002.51 1002.43 1002.39 1002.39 1002.41 1002.44 1002.47 1002.50 1002.52 1002.54 1002.57 1002.64 1002.75 1002.94 1003.22 1003.60 1004.08 1004.65 1005.30 1006.01 1006.73 1007.45 1008.12 1008.73 1009.26 1009.69 1010.03 1010.30 1010.49
1005.24 1005.21 1005.12 1004.98 1004.79 1004.53 1004.23 1003.88 1003.51 1003.13 1002.76 1002.42 1002.13 1001.89 1001.71 1001.59 1001.53 1001.50 1001.51 1001.52 1001.53 1001.53 1001.53 1001.52 1001.52 1001.56 1001.65 1001.82 1002.08 1002.46 1002.95 1003.54 1004.23 1004.97 1005.75 1006.53 1007.27 1007.94 1008.53 1009.03 1009.43 1009.74 1009.98
1005.02 1005.00 1004.92 1004.78 1004.58 1004.30 1003.97 1003.58 1003.15 1002.72 1002.29 1001.89 1001.53 1001.25 1001.03 1000.88 1000.79 1000.75 1000.73 1000.74 1000.74 1000.73 1000.71 1000.69 1000.68 1000.69 1000.76 1000.90 1001.15 1001.50 1001.98 1002.57 1003.25 1004.01 1004.81 1005.61 1006.39 1007.11 1007.75 1008.30 1008.75 1009.12 1009.40
1004.82 1004.81 1004.75 1004.62 1004.41 1004.12 1003.76 1003.33 1002.87 1002.38 1001.90 1001.45 1001.05 1000.72 1000.47 1000.29 1000.18 1000.13 1000.11 1000.11 1000.12 1000.11 1000.09 1000.06 1000.04 1000.04 1000.09 1000.21 1000.43 1000.75 1001.20 1001.76 1002.41 1003.15 1003.94 1004.75 1005.54 1006.29 1006.96 1007.55 1008.05 1008.46 1008.80
1004.64 1004.65 1004.60 1004.48 1004.26 1003.96 1003.58 1003.13 1002.63 1002.11 1001.59 1001.11 1000.68 1000.32 1000.05 999.86 999.74 999.69 999.67 999.68 999.69 999.69 999.68 999.66 999.63 999.62 999.65 999.75 999.93 1000.22 1000.62 1001.14 1001.75 1002.45 1003.21 1004.00 1004.78 1005.53 1006.22 1006.84 1007.37 1007.82 1008.19
Thickness
5800 5796 5792 5787 5783 5779 5774 5771 5767 5764 5760 5757 5754 5750 5747 5745 5742 5738 5735 5733 5729 5726 5725 5723 5720 5720 5719 5718 5717 5715 5712 5708 5702 5704 5707 5707 5706 5705 5704 5704 5703 5702 5701
5798 5793 5788 5784 5780 5775 5771 5768 5764 5760 5757 5753 5750 5746 5743 5740 5737 5733 5729 5727 5724 5721 5719 5717 5715 5715 5712 5711 5710 5708 5706 5704 5699 5696 5698 5699 5699 5699 5698 5697 5698 5697 5697
5794 5789 5784 5779 5775 5771 5768 5764 5760 5756 5752 5749 5746 5742 5738 5736 5732 5729 5725 5722 5720 5717 5714 5711 5710 5708 5706 5704 5703 5701 5700 5700 5696 5693 5692 5692 5692 5692 5691 5691 5691 5691 5691
5788 5783 5778 5774 5771 5768 5764 5760 5755 5751 5746 5743 5741 5738 5734 5731 5728 5725 5721 5717 5715 5712 5710 5708 5706 5703 5701 5699 5698 5695 5694 5691 5690 5687 5685 5685 5684 5684 5683 5681 5681 5682 5683
5782 5777 5772 5769 5766 5762 5758 5754 5750 5745 5742 5738 5735 5732 5730 5727 5724 5719 5715 5713 5709 5706 5704 5703 5701 5699 5697 5694 5692 5689 5687 5684 5683 5681 5678 5677 5675 5674 5673 5674 5673 5674 5676
5776 5771 5768 5763 5759 5755 5751 5747 5743 5739 5736 5732 5729 5726 5724 5722 5717 5713 5709 5707 5704 5701 5698 5697 5696 5694 5692 5689 5687 5684 5682 5679 5676 5673 5671 5669 5669 5668 5668 5668 5666 5665 5665
5768 5765 5761 5757 5752 5748 5745 5741 5736 5733 5729 5726 5723 5721 5717 5714 5710 5706 5703 5701 5699 5696 5694 5692 5691 5691 5687 5684 5681 5679 5677 5676 5673 5670 5667 5665 5664 5664 5662 5661 5660 5658 5659
5761 5757 5754 5750 5746 5742 5738 5734 5731 5728 5725 5721 5718 5715 5712 5708 5703 5699 5697 5696 5694 5692 5690 5688 5685 5683 5681 5678 5676 5674 5672 5670 5669 5667 5665 5663 5663 5661 5658 5656 5655 5655 5656
5754 5751 5748 5744 5740 5736 5731 5728 5726 5722 5719 5716 5714 5711 5707 5703 5698 5693 5690 5689 5689 5688 5686 5684 5681 5678 5675 5672 5670 5667 5666 5665 5665 5663 5661 5659 5657 5655 5653 5650 5648 5646 5645
5747 5744 5742 5738 5733 5729 5726 5723 5720 5717 5714 5711 5708 5706 5702 5698 5693 5688 5684 5683 5682 5681 5681 5679 5676 5673 5669 5666 5663 5661 5659 5659 5658 5657 5655 5653 5652 5650 5648 5645 5643 5639 5638
5741 5738 5734 5731 5727 5724 5720 5717 5714 5711 5708 5705 5702 5700 5697 5693 5688 5684 5679 5677 5675 5675 5674 5673 5670 5666 5663 5660 5658 5656 5655 5653 5652 5650 5649 5648 5647 5645 5644 5641 5639 5636 5633
5733 5729 5726 5723 5721 5719 5714 5710 5707 5704 5700 5698 5695 5693 5692 5689 5685 5680 5676 5672 5670 5668 5668 5667 5665 5660 5657 5655 5653 5652 5650 5647 5646 5644 5644 5642 5641 5640 5639 5637 5635 5633 5631
5723 5719 5717 5715 5712 5710 5706 5702 5699 5696 5693 5691 5689 5687 5686 5684 5680 5675 5670 5667 5665 5661 5662 5661 5658 5655 5652 5650 5649 5647 5645 5643 5641 5639 5638 5637 5636 5636 5634 5632 5630 5628 5627
5711 5708 5707 5705 5702 5700 5698 5696 5692 5689 5686 5684 5682 5680 5678 5676 5673 5669 5665 5662 5658 5655 5653 5652 5651 5649 5647 5645 5644 5642 5641 5639 5637 5635 5633 5633 5632 5630 5627 5625 5623 5622 5620
5700 5698 5697 5696 5694 5691 5689 5687 5685 5682 5679 5675 5674 5672 5668 5666 5664 5661 5658 5656 5653 5650 5646 5645 5643 5642 5641 5640 5639 5638 5636 5634 5632 5631 5629 5627 5625 5623 5622 5621 5618 5617 5614
5691 5689 5688 5687 5685 5683 5681 5678 5676 5673 5670 5667 5665 5662 5661 5658 5656 5653 5651 5649 5646 5643 5639 5639 5639 5638 5636 5635 5634 5632 5631 5629 5627 5626 5624 5622 5620 5618 5616 5616 5614 5612 5610
5682 5680 5679 5678 5677 5674 5672 5669 5665 5662 5661 5659 5657 5654 5651 5649 5648 5646 5644 5641 5639 5635 5633 5634 5634 5633 5632 5631 5630 5628 5627 5626 5624 5622 5620 5618 5616 5614 5612 5610 5609 5608 5606
5672 5671 5669 5668 5668 5666 5664 5663 5660 5657 5655 5653 5650 5646 5645 5643 5641 5639 5635 5632 5632 5630 5631 5630 5630 5629 5628 5627 5626 5624 5623 5621 5619 5617 5615 5613 5611 5609 5607 5605 5605 5603 5602
5663 5663 5661 5660 5659 5657 5656 5655 5654 5653 5650 5647 5644 5641 5637 5634 5632 5630 5627 5627 5628 5627 5627 5626 5625 5624 5624 5622 5621 5620 5618 5616 5614 5612 5611 5609 5607 5604 5603 5601 5600 5598 5597
5655 5653 5651 5650 5650 5649 5648 5646 5645 5644 5642 5639 5637 5636 5632 5629 5627 5625 5622 5622 5623 5623 5622 5621 5620 5619 5618 5616 5615 5614 5612 5611 5609 5608 5606 5604 5602 5600 5598 5597 5596 5594 5593
5648 5646 5642 5642 5641 5640 5639 5638 5637 5635 5634 5632 5632 5631 5627 5625 5624 5623 5621 5619 5619 5619 5618 5617 5616 5615 5613 5611 5609 5608 5607 5606 5605 5603 5602 5600 5597 5595 5594 5593 5592 5591 5589
5639 5637 5636 5634 5633 5631 5631 5630 5629 5627 5626 5625 5625 5623 5620 5620 5620 5619 5618 5616 5615 5614 5614 5612 5611 5610 5608 5607 5605 5604 5602 5601 5601 5599 5597 5595 5593 5591 5590 5588 5587 5585 5584
5630 5629 5628 5627 5625 5623 5622 5622 5621 5620 5619 5618 5617 5615 5613 5613 5613 5613 5612 5611 5610 5609 5608 5607 5605 5604 5603 5602 5602 5600 5598 5597 5597 5595 5592 5590 5589 5587 5585 5584 5582 5580 5580
5622 5621 5619 5617 5615 5615 5613 5612 5612 5611 5611 5610 5609 5608 5607 5606 5606 5605 5605 5604 5604 5603 5602 5601 5600 5598 5597 5596 5596 5596 5594 5593 5592 5589 5587 5586 5584 5583 5582 5579 5578 5577 5575
5613 5611 5610 5608 5606 5604 5603 5603 5602 5601 5601 5600 5600 5600 5599 5599 5598 5598 5597 5597 5596 5596 5595 5594 5594 5593 5592 5591 5591 5591 5589 5588 5587 5584 5582 5581 5580 5578 5577 5575 5573 5573 5570
5603 5602 5601 5599 5597 5595 5594 5593 5593 5592 5592 5592 5592 5592 5591 5590 5590 5590 5590 5590 5589 5589 5588 5588 5587 5588 5589 5588 5587 5585 5583 5582 5580 5578 5576 5575 5575 5573 5572 5570 5569 5568 5567